Time,TemperatureF,DewpointF,PressureIn,WindDirection,WindDirectionDegrees,WindSpeedMPH,WindSpeedGustMPH,Humidity,HourlyPrecipIn,Conditions,Clouds,dailyrainin,SoftwareType,DateUTC
2013-04-07 00:03:00,58.0,40.0,29.90,South,176,3.0,7.0,51,0.00,,,0.00,,2013-04-07 04:03:00,
2013-04-07 00:14:00,58.0,40.0,29.90,South,176,3.0,7.0,51,0.00,,,0.00,,2013-04-07 04:14:00,
2013-04-07 00:23:00,57.0,40.0,29.90,South,170,2.0,5.0,52,0.00,,,0.00,,2013-04-07 04:23:00,
2013-04-07 00:32:00,56.0,39.0,29.88,SSE,162,4.0,10.0,52,0.00,,,0.00,,2013-04-07 04:32:00,
2013-04-07 00:43:00,56.0,39.0,29.88,SSE,162,4.0,10.0,52,0.00,,,0.00,,2013-04-07 04:43:00,
2013-04-07 00:52:00,57.0,40.0,29.88,SSE,166,5.0,8.0,52,0.00,,,0.00,,2013-04-07 04:52:00,
2013-04-07 01:02:00,57.0,39.0,29.87,South,174,4.0,19.0,50,0.00,,,0.00,,2013-04-07 05:02:00,
2013-04-07 01:12:00,57.0,39.0,29.87,South,174,4.0,19.0,50,0.00,,,0.00,,2013-04-07 05:12:00,
2013-04-07 01:23:00,57.0,39.0,29.87,SSE,166,7.0,14.0,50,0.00,,,0.00,,2013-04-07 05:23:00,
2013-04-07 01:33:00,57.0,38.0,29.88,South,176,5.0,10.0,49,0.00,,,0.00,,2013-04-07 05:33:00,
2013-04-07 01:43:00,57.0,38.0,29.88,South,176,5.0,10.0,49,0.00,,,0.00,,2013-04-07 05:43:00,
2013-04-07 01:52:00,58.0,39.0,29.88,South,187,7.0,11.0,49,0.00,,,0.00,,2013-04-07 05:52:00,
2013-04-07 02:02:00,58.0,38.0,29.87,SSE,165,6.0,11.0,48,0.00,,,0.00,,2013-04-07 06:02:00,
2013-04-07 02:12:00,58.0,38.0,29.87,SSE,165,6.0,11.0,48,0.00,,,0.00,,2013-04-07 06:12:00,
2013-04-07 02:22:00,58.0,38.0,29.87,South,184,6.0,11.0,48,0.00,,,0.00,,2013-04-07 06:22:00,
2013-04-07 02:32:00,58.0,39.0,29.87,South,179,5.0,10.0,49,0.00,,,0.00,,2013-04-07 06:32:00,
2013-04-07 02:42:00,58.0,39.0,29.87,South,179,5.0,10.0,49,0.00,,,0.00,,2013-04-07 06:42:00,
2013-04-07 02:52:00,58.0,39.0,29.87,South,171,4.0,12.0,49,0.00,,,0.00,,2013-04-07 06:52:00,
2013-04-07 03:02:00,58.0,38.0,29.87,South,170,7.0,12.0,48,0.00,,,0.00,,2013-04-07 07:02:00,
2013-04-07 03:12:00,58.0,38.0,29.87,South,170,7.0,12.0,48,0.00,,,0.00,,2013-04-07 07:12:00,
2013-04-07 03:22:00,58.0,38.0,29.86,SSE,159,5.0,13.0,48,0.00,,,0.00,,2013-04-07 07:22:00,
2013-04-07 03:33:00,58.0,39.0,29.86,South,178,4.0,16.0,50,0.00,,,0.00,,2013-04-07 07:33:00,
2013-04-07 03:42:00,58.0,39.0,29.86,South,178,4.0,16.0,50,0.00,,,0.00,,2013-04-07 07:42:00,
2013-04-07 03:52:00,58.0,39.0,29.86,SSE,153,4.0,12.0,50,0.00,,,0.00,,2013-04-07 07:52:00,
2013-04-07 04:02:00,57.0,39.0,29.85,SSE,160,6.0,10.0,50,0.00,,,0.00,,2013-04-07 08:02:00,
2013-04-07 04:12:00,57.0,39.0,29.86,South,175,4.0,11.0,51,0.00,,,0.00,,2013-04-07 08:12:00,
2013-04-07 04:22:00,57.0,39.0,29.86,South,175,4.0,11.0,51,0.00,,,0.00,,2013-04-07 08:22:00,
2013-04-07 04:33:00,57.0,39.0,29.85,South,171,7.0,14.0,51,0.00,,,0.00,,2013-04-07 08:33:00,
2013-04-07 04:42:00,57.0,39.0,29.85,South,171,7.0,14.0,51,0.00,,,0.00,,2013-04-07 08:42:00,
2013-04-07 04:52:00,57.0,40.0,29.85,South,173,6.0,12.0,52,0.00,,,0.00,,2013-04-07 08:52:00,
2013-04-07 05:02:00,58.0,40.0,29.85,South,179,6.0,12.0,52,0.00,,,0.00,,2013-04-07 09:02:00,
2013-04-07 05:12:00,58.0,40.0,29.85,South,179,6.0,12.0,52,0.00,,,0.00,,2013-04-07 09:12:00,
2013-04-07 05:22:00,58.0,40.0,29.85,South,172,3.0,9.0,52,0.00,,,0.00,,2013-04-07 09:22:00,
2013-04-07 05:33:00,58.0,41.0,29.85,South,177,5.0,11.0,53,0.00,,,0.00,,2013-04-07 09:33:00,
2013-04-07 05:43:00,58.0,41.0,29.85,South,177,5.0,11.0,53,0.00,,,0.00,,2013-04-07 09:43:00,
2013-04-07 05:53:00,58.0,40.0,29.85,South,175,5.0,13.0,52,0.00,,,0.00,,2013-04-07 09:53:00,
2013-04-07 06:04:00,58.0,41.0,29.85,South,185,5.0,12.0,53,0.00,,,0.00,,2013-04-07 10:04:00,
2013-04-07 06:13:00,58.0,41.0,29.85,South,185,5.0,12.0,53,0.00,,,0.00,,2013-04-07 10:13:00,
2013-04-07 06:23:00,58.0,41.0,29.85,SSE,166,6.0,9.0,53,0.00,,,0.00,,2013-04-07 10:23:00,
2013-04-07 06:34:00,58.0,41.0,29.86,South,174,6.0,17.0,53,0.00,,,0.00,,2013-04-07 10:34:00,
2013-04-07 06:43:00,58.0,41.0,29.86,South,174,6.0,17.0,53,0.00,,,0.00,,2013-04-07 10:43:00,
2013-04-07 06:53:00,58.0,41.0,29.86,South,178,6.0,11.0,53,0.00,,,0.00,,2013-04-07 10:53:00,
2013-04-07 07:03:00,58.0,41.0,29.86,South,178,6.0,17.0,53,0.00,,,0.00,,2013-04-07 11:03:00,
2013-04-07 07:12:00,58.0,41.0,29.86,South,178,6.0,17.0,53,0.00,,,0.00,,2013-04-07 11:12:00,
2013-04-07 07:23:00,58.0,41.0,29.86,South,176,8.0,13.0,53,0.00,,,0.00,,2013-04-07 11:23:00,
2013-04-07 07:33:00,58.0,41.0,29.86,South,174,6.0,15.0,54,0.00,,,0.00,,2013-04-07 11:33:00,
2013-04-07 07:42:00,58.0,41.0,29.86,South,174,6.0,15.0,54,0.00,,,0.00,,2013-04-07 11:42:00,
2013-04-07 07:52:00,58.0,41.0,29.87,SSE,165,4.0,10.0,54,0.00,,,0.00,,2013-04-07 11:52:00,
2013-04-07 08:03:00,58.0,42.0,29.88,South,182,6.0,11.0,55,0.00,,,0.00,,2013-04-07 12:03:00,
2013-04-07 08:12:00,58.0,42.0,29.88,South,182,6.0,11.0,55,0.00,,,0.00,,2013-04-07 12:12:00,
2013-04-07 08:23:00,58.0,42.0,29.88,South,174,5.0,9.0,55,0.00,,,0.00,,2013-04-07 12:23:00,
2013-04-07 08:34:00,58.0,42.0,29.89,SSW,192,7.0,12.0,56,0.00,,,0.00,,2013-04-07 12:34:00,
2013-04-07 08:43:00,58.0,42.0,29.89,SSW,192,7.0,12.0,56,0.00,,,0.00,,2013-04-07 12:43:00,
2013-04-07 08:53:00,58.0,42.0,29.89,South,177,4.0,10.0,56,0.00,,,0.00,,2013-04-07 12:53:00,
2013-04-07 09:04:00,59.0,43.0,29.90,SSW,197,5.0,12.0,56,0.00,,,0.00,,2013-04-07 13:04:00,
2013-04-07 09:13:00,59.0,43.0,29.90,SSW,197,5.0,12.0,56,0.00,,,0.00,,2013-04-07 13:13:00,
2013-04-07 09:23:00,60.0,44.0,29.90,SSE,165,3.0,9.0,56,0.00,,,0.00,,2013-04-07 13:23:00,
2013-04-07 09:33:00,60.0,43.0,29.90,South,189,8.0,15.0,54,0.00,,,0.00,,2013-04-07 13:33:00,
2013-04-07 09:42:00,60.0,43.0,29.90,South,189,8.0,15.0,54,0.00,,,0.00,,2013-04-07 13:42:00,
2013-04-07 09:52:00,60.0,43.0,29.90,SSW,192,6.0,15.0,54,0.00,,,0.00,,2013-04-07 13:52:00,
2013-04-07 10:02:00,61.0,44.0,29.91,South,174,8.0,12.0,54,0.00,,,0.00,,2013-04-07 14:02:00,
2013-04-07 10:12:00,61.0,44.0,29.91,South,174,8.0,12.0,54,0.00,,,0.00,,2013-04-07 14:12:00,
2013-04-07 10:23:00,62.0,45.0,29.91,South,183,4.0,13.0,54,0.00,,,0.00,,2013-04-07 14:23:00,
2013-04-07 10:33:00,64.0,46.0,29.91,South,187,5.0,13.0,52,0.00,,,0.00,,2013-04-07 14:33:00,
2013-04-07 10:43:00,64.0,46.0,29.91,South,187,5.0,13.0,52,0.00,,,0.00,,2013-04-07 14:43:00,
2013-04-07 10:53:00,65.0,47.0,29.91,South,186,6.0,13.0,52,0.00,,,0.00,,2013-04-07 14:53:00,
2013-04-07 11:03:00,67.0,48.0,29.91,South,186,2.0,12.0,51,0.00,,,0.00,,2013-04-07 15:03:00,
2013-04-07 11:13:00,67.0,48.0,29.91,SSW,203,4.0,13.0,51,0.00,,,0.00,,2013-04-07 15:13:00,
2013-04-07 11:22:00,67.0,48.0,29.91,SSW,203,4.0,13.0,51,0.00,,,0.00,,2013-04-07 15:22:00,
2013-04-07 11:35:00,68.0,49.0,29.91,SSW,206,5.0,10.0,50,0.00,,,0.00,,2013-04-07 15:35:00,
2013-04-07 11:45:00,68.0,49.0,29.91,SSW,206,5.0,10.0,50,0.00,,,0.00,,2013-04-07 15:45:00,
2013-04-07 11:53:00,69.0,50.0,29.91,SW,224,5.0,9.0,50,0.00,,,0.00,,2013-04-07 15:53:00,
2013-04-07 12:04:00,69.0,50.0,29.92,WSW,253,6.0,11.0,50,0.00,,,0.00,,2013-04-07 16:04:00,
2013-04-07 12:13:00,69.0,50.0,29.92,WSW,253,6.0,11.0,50,0.00,,,0.00,,2013-04-07 16:13:00,
2013-04-07 12:25:00,70.0,51.0,29.92,West,268,4.0,11.0,51,0.00,,,0.00,,2013-04-07 16:25:00,
2013-04-07 12:34:00,70.0,49.0,29.92,South,175,4.0,11.0,48,0.00,,,0.00,,2013-04-07 16:34:00,
2013-04-07 12:43:00,70.0,49.0,29.92,South,175,4.0,11.0,48,0.00,,,0.00,,2013-04-07 16:43:00,
2013-04-07 12:53:00,70.0,51.0,29.92,WSW,252,3.0,12.0,51,0.00,,,0.00,,2013-04-07 16:53:00,
2013-04-07 13:05:00,70.0,50.0,29.91,South,172,8.0,14.0,50,0.00,,,0.00,,2013-04-07 17:05:00,
2013-04-07 13:13:00,70.0,50.0,29.91,South,172,8.0,14.0,50,0.00,,,0.00,,2013-04-07 17:13:00,
2013-04-07 13:23:00,71.0,52.0,29.91,SSE,161,7.0,12.0,51,0.00,,,0.00,,2013-04-07 17:23:00,
2013-04-07 13:33:00,71.0,51.0,29.91,SW,226,7.0,14.0,49,0.00,,,0.00,,2013-04-07 17:33:00,
2013-04-07 13:43:00,71.0,51.0,29.91,SW,226,7.0,14.0,49,0.00,,,0.00,,2013-04-07 17:43:00,
2013-04-07 13:53:00,71.0,52.0,29.91,South,189,4.0,9.0,51,0.00,,,0.00,,2013-04-07 17:53:00,
2013-04-07 14:03:00,72.0,52.0,29.91,South,185,3.0,13.0,50,0.00,,,0.00,,2013-04-07 18:03:00,
2013-04-07 14:13:00,72.0,52.0,29.91,South,185,3.0,13.0,50,0.00,,,0.00,,2013-04-07 18:13:00,
2013-04-07 14:23:00,72.0,52.0,29.91,South,177,7.0,13.0,49,0.00,,,0.00,,2013-04-07 18:23:00,
2013-04-07 14:33:00,72.0,53.0,29.91,West,271,5.0,14.0,51,0.00,,,0.00,,2013-04-07 18:33:00,
2013-04-07 14:43:00,72.0,53.0,29.91,West,271,5.0,14.0,51,0.00,,,0.00,,2013-04-07 18:43:00,
2013-04-07 14:52:00,72.0,52.0,29.91,South,174,6.0,13.0,50,0.00,,,0.00,,2013-04-07 18:52:00,
2013-04-07 15:03:00,72.0,53.0,29.90,South,176,4.0,13.0,51,0.00,,,0.00,,2013-04-07 19:03:00,
2013-04-07 15:12:00,72.0,53.0,29.90,South,176,4.0,13.0,51,0.00,,,0.00,,2013-04-07 19:12:00,
2013-04-07 15:22:00,72.0,52.0,29.91,South,171,6.0,12.0,50,0.00,,,0.00,,2013-04-07 19:22:00,
2013-04-07 15:33:00,72.0,53.0,29.91,South,171,2.0,10.0,51,0.00,,,0.00,,2013-04-07 19:33:00,
2013-04-07 15:42:00,72.0,53.0,29.91,South,171,2.0,10.0,51,0.00,,,0.00,,2013-04-07 19:42:00,
2013-04-07 15:53:00,72.0,53.0,29.91,SW,224,2.0,15.0,52,0.00,,,0.00,,2013-04-07 19:53:00,
2013-04-07 16:03:00,71.0,52.0,29.91,SSE,160,8.0,12.0,51,0.00,,,0.00,,2013-04-07 20:03:00,
2013-04-07 16:13:00,71.0,52.0,29.91,SSE,160,8.0,12.0,51,0.00,,,0.00,,2013-04-07 20:13:00,
2013-04-07 16:22:00,71.0,52.0,29.91,SSW,193,3.0,10.0,51,0.00,,,0.00,,2013-04-07 20:22:00,
2013-04-07 16:33:00,70.0,52.0,29.91,WSW,249,6.0,12.0,53,0.00,,,0.00,,2013-04-07 20:33:00,
2013-04-07 16:43:00,70.0,52.0,29.91,WSW,249,6.0,12.0,53,0.00,,,0.00,,2013-04-07 20:43:00,
2013-04-07 16:52:00,71.0,54.0,29.91,South,176,2.0,11.0,54,0.00,,,0.00,,2013-04-07 20:52:00,
2013-04-07 17:04:00,71.0,53.0,29.91,South,185,4.0,10.0,53,0.00,,,0.00,,2013-04-07 21:04:00,
2013-04-07 17:13:00,71.0,53.0,29.91,South,185,4.0,10.0,53,0.00,,,0.00,,2013-04-07 21:13:00,
2013-04-07 17:22:00,70.0,52.0,29.91,South,186,3.0,6.0,53,0.00,,,0.00,,2013-04-07 21:22:00,
2013-04-07 17:34:00,71.0,53.0,29.91,South,184,1.0,8.0,53,0.00,,,0.00,,2013-04-07 21:34:00,
2013-04-07 17:43:00,71.0,53.0,29.91,South,184,1.0,8.0,53,0.00,,,0.00,,2013-04-07 21:43:00,
2013-04-07 17:53:00,70.0,53.0,29.91,SW,215,4.0,8.0,54,0.00,,,0.00,,2013-04-07 21:53:00,
2013-04-07 18:04:00,70.0,53.0,29.91,South,181,3.0,6.0,55,0.00,,,0.00,,2013-04-07 22:04:00,
2013-04-07 18:14:00,70.0,53.0,29.91,South,181,3.0,6.0,55,0.00,,,0.00,,2013-04-07 22:14:00,
2013-04-07 18:23:00,69.0,53.0,29.91,South,178,3.0,10.0,56,0.00,,,0.00,,2013-04-07 22:23:00,
2013-04-07 18:34:00,68.0,53.0,29.92,SSE,165,1.0,5.0,59,0.00,,,0.00,,2013-04-07 22:34:00,
2013-04-07 18:43:00,68.0,53.0,29.92,SSE,165,1.0,5.0,59,0.00,,,0.00,,2013-04-07 22:43:00,
2013-04-07 18:53:00,67.0,54.0,29.94,SW,215,3.0,16.0,64,0.00,,,0.00,,2013-04-07 22:53:00,
2013-04-07 19:04:00,64.0,54.0,29.92,SSW,207,2.0,7.0,71,0.00,,,0.00,,2013-04-07 23:04:00,
2013-04-07 19:13:00,64.0,54.0,29.92,SSW,207,2.0,7.0,71,0.00,,,0.00,,2013-04-07 23:13:00,
2013-04-07 19:22:00,63.0,54.0,29.92,SSW,207,3.0,4.0,73,0.00,,,0.00,,2013-04-07 23:22:00,
2013-04-07 19:33:00,63.0,55.0,29.92,SSW,207,1.0,3.0,74,0.00,,,0.00,,2013-04-07 23:33:00,
2013-04-07 19:43:00,63.0,55.0,29.92,SSW,207,1.0,3.0,74,0.00,,,0.00,,2013-04-07 23:43:00,
2013-04-07 19:52:00,63.0,55.0,29.92,SSW,207,0.0,3.0,74,0.00,,,0.00,,2013-04-07 23:52:00,
2013-04-07 20:03:00,63.0,54.0,29.92,SSW,207,0.0,2.0,73,0.00,,,0.00,,2013-04-08 00:03:00,
2013-04-07 20:12:00,63.0,54.0,29.92,SSW,207,0.0,2.0,73,0.00,,,0.00,,2013-04-08 00:12:00,
2013-04-07 20:22:00,62.0,54.0,29.92,SSW,207,1.0,2.0,74,0.00,,,0.00,,2013-04-08 00:22:00,
2013-04-07 20:33:00,62.0,54.0,29.92,SSW,207,1.0,4.0,75,0.00,,,0.00,,2013-04-08 00:33:00,
2013-04-07 20:42:00,62.0,54.0,29.92,SSW,207,1.0,4.0,75,0.00,,,0.00,,2013-04-08 00:42:00,
2013-04-07 20:52:00,62.0,54.0,29.93,SSW,207,0.0,3.0,74,0.00,,,0.00,,2013-04-08 00:52:00,
2013-04-07 21:03:00,62.0,54.0,29.93,SSW,207,0.0,2.0,76,0.00,,,0.00,,2013-04-08 01:03:00,
2013-04-07 21:12:00,62.0,54.0,29.93,SSW,207,0.0,2.0,76,0.00,,,0.00,,2013-04-08 01:12:00,
2013-04-07 21:23:00,61.0,54.0,29.93,SSW,207,0.0,1.0,77,0.00,,,0.00,,2013-04-08 01:23:00,
2013-04-07 21:34:00,61.0,55.0,29.95,SSW,209,1.0,4.0,80,0.04,,,0.04,,2013-04-08 01:34:00,
2013-04-07 21:43:00,61.0,55.0,29.95,SSW,209,1.0,4.0,80,0.04,,,0.04,,2013-04-08 01:43:00,
2013-04-07 21:54:00,60.0,54.0,29.95,SSW,211,0.0,6.0,82,0.08,,,0.08,,2013-04-08 01:54:00,
2013-04-07 22:03:00,60.0,55.0,29.95,SSW,211,1.0,2.0,85,0.10,,,0.10,,2013-04-08 02:03:00,
2013-04-07 22:12:00,60.0,55.0,29.95,SSW,211,1.0,2.0,85,0.10,,,0.10,,2013-04-08 02:12:00,
2013-04-07 22:22:00,59.0,55.0,29.95,SSW,212,1.0,3.0,86,0.10,,,0.10,,2013-04-08 02:22:00,
2013-04-07 22:33:00,59.0,55.0,29.95,SSW,211,0.0,0.0,88,0.09,,,0.13,,2013-04-08 02:33:00,
2013-04-07 22:47:00,59.0,55.0,29.95,SSW,211,0.0,0.0,88,0.09,,,0.13,,2013-04-08 02:47:00,
2013-04-07 22:53:00,59.0,56.0,29.95,SSW,212,0.0,0.0,89,0.05,,,0.13,,2013-04-08 02:53:00,
2013-04-07 23:08:00,58.0,54.0,29.96,SW,231,4.0,7.0,88,0.03,,,0.13,,2013-04-08 03:08:00,
2013-04-07 23:15:00,58.0,54.0,29.96,SW,231,4.0,7.0,88,0.03,,,0.13,,2013-04-08 03:15:00,
2013-04-07 23:25:00,58.0,54.0,29.96,SW,233,2.0,5.0,88,0.03,,,0.13,,2013-04-08 03:25:00,
2013-04-07 23:35:00,57.0,53.0,29.97,WSW,257,1.0,6.0,88,0.00,,,0.13,,2013-04-08 03:35:00,
2013-04-07 23:47:00,57.0,53.0,29.97,WSW,257,1.0,6.0,88,0.00,,,0.13,,2013-04-08 03:47:00,
2013-04-07 23:53:00,56.0,53.0,29.96,West,262,1.0,6.0,89,0.00,,,0.13,,2013-04-08 03:53:00,